Wind_Speed
26 27 28 29 30 31 31 32 33 32 32 31 31 32 32 32 32 32 31 31 31 31 31 32 32 33 34 34 35 36 36 37 37 37 38 38 39 39 40 41 41 41 41 41
27 29 30 30 30 31 32 32 33 33 31 31 32 32 33 33 32 32 32 32 32 31 31 31 32 33 33 33 34 34 35 36 36 37 38 38 38 39 39 40 40 40 40 40
28 28 30 31 30 31 32 32 33 33 32 31 32 32 33 33 33 33 33 32 32 32 31 32 32 32 32 33 33 33 34 35 36 37 37 37 37 37 37 37 38 38 39 38
30 30 31 29 29 30 31 31 32 32 32 32 32 32 32 33 33 33 33 33 33 33 33 32 32 32 32 32 32 32 33 33 34 35 36 36 35 36 36 35 36 37 37 38
30 31 32 29 30 30 31 31 31 31 31 31 31 32 32 32 33 32 33 33 33 33 33 33 33 32 32 32 32 32 32 33 33 33 33 34 34 34 34 35 35 36 36 37
30 31 32 30 30 30 31 31 30 30 30 30 31 32 31 32 32 31 31 32 32 33 33 33 33 33 33 32 32 32 32 32 33 33 33 33 33 34 34 35 35 35 35 35
30 31 31 29 29 29 30 31 30 30 30 30 31 31 31 31 31 31 31 31 31 32 32 32 32 32 32 32 32 33 33 33 33 33 33 33 33 34 34 34 34 34 34 35
30 30 29 28 28 29 29 29 29 30 30 31 32 32 32 31 31 31 30 30 31 31 32 32 32 32 32 32 33 33 33 34 34 33 33 34 34 34 35 35 35 34 34 35
30 30 29 28 28 28 28 28 28 29 29 30 31 32 32 32 31 31 31 31 31 31 32 32 32 32 32 33 33 33 33 33 33 33 34 34 33 34 34 35 35 35 35 35
30 29 29 29 29 29 28 28 28 29 29 29 30 31 32 32 32 32 32 31 31 31 32 32 32 32 33 33 34 34 34 34 33 33 33 34 34 34 35 35 35 35 35 35
31 30 30 29 29 28 28 28 29 29 29 29 30 30 30 31 31 31 31 31 31 31 32 32 32 33 33 34 34 33 33 33 33 33 33 33 34 35 35 35 35 35 35 35
28 28 29 28 29 29 29 29 29 29 29 29 30 30 31 31 30 30 30 31 31 31 31 31 32 32 32 33 33 33 33 33 33 34 33 33 33 33 33 33 33 33 33 34
28 28 29 29 29 29 29 29 29 29 30 29 29 30 30 30 29 30 30 30 30 30 30 30 31 31 31 32 32 32 32 32 33 32 32 32 31 31 31 31 31 32 32 32
29 29 29 29 29 29 30 29 30 29 29 30 30 30 30 29 29 29 29 30 29 29 29 29 30 30 30 30 31 31 31 31 31 31 31 31 31 30 30 30 30 30 30 30
29 29 29 29 30 30 30 30 30 29 28 29 29 29 29 29 28 28 28 29 29 28 28 28 28 28 29 29 29 29 30 30 30 30 30 30 30 30 30 30 30 29 29 29
28 28 28 29 29 29 29 29 28 28 28 28 28 28 29 29 29 29 29 29 29 29 29 29 29 28 28 27 27 27 27 28 28 29 29 29 29 29 29 29 29 29 28 28
27 26 27 27 28 28 28 28 28 27 27 28 28 28 28 29 29 30 30 30 30 29 29 29 28 28 28 27 27 27 27 27 27 28 28 28 28 28 28 28 28 28 28 27
26 26 26 27 27 27 27 27 27 27 27 28 28 28 28 29 29 29 29 29 29 29 28 28 27 27 27 26 26 26 26 26 26 26 26 26 27 27 27 26 26 26 26 26
26 26 26 26 26 26 26 26 26 26 27 27 27 27 27 28 28 28 28 27 27 27 26 25 25 25 25 25 25 25 25 25 25 24 24 25 25 25 24 24 24 24 24 24
26 26 26 25 26 26 25 25 26 26 26 26 26 26 26 25 25 25 25 25 24 23 23 23 23 24 23 23 24 24 24 23 23 23 22 22 22 22 22 22 22 22 23 23
25 26 26 25 25 25 25 25 26 26 25 25 25 25 25 24 24 24 24 24 23 23 23 23 23 23 23 23 22 22 22 22 22 22 22 21 21 21 21 21 21 22 22 22
24 25 24 24 24 24 24 25 25 24 24 24 24 24 24 23 23 23 23 22 22 22 23 23 23 22 22 22 21 21 21 21 21 21 21 21 21 21 21 21 21 21 20 20
22 22 22 22 23 23 23 23 23 23 23 23 23 23 23 22 22 22 22 22 22 22 22 22 22 22 22 21 21 21 21 21 21 21 21 20 21 21 21 20 20 19 19 19
20 20 20 21 21 21 22 22 22 22 22 22 22 22 22 22 22 22 22 22 22 21 21 21 21 21 21 20 21 21 21 21 21 21 21 21 21 20 20 20 19 19 18 18
19 19 19 20 20 20 21 21 20 20 21 21 21 21 21 21 21 21 21 21 21 21 21 21 21 21 21 21 21 21 21 21 21 21 20 20 20 20 19 19 18 18 18 17
19 18 18 19 19 20 19 18 18 18 19 19 19 19 20 20 20 20 20 20 20 21 21 21 21 22 22 22 21 21 21 20 20 20 20 20 19 18 18 18 18 18 17 17
18 18 18 18 18 18 18 18 18 18 17 17 17 18 18 18 19 19 20 21 21 21 21 21 22 22 22 21 21 20 19 19 18 19 19 18 18 17 17 17 17 17 16 16
Wind_Direction
267 268 269 270 270 270 270 270 270 270 270 270 271 271 272 273 273 274 275 275 274 274 273 272 272 273 273 273 273 273 272 272 272 272 272 273 273 274 275 275 276 276 277 278
270 270 271 271 271 271 270 270 271 271 270 270 270 271 272 273 274 275 276 276 276 274 274 273 273 274 274 273 273 273 273 272 272 273 273 274 275 275 276 276 277 277 278 278
273 272 271 271 273 274 272 271 271 271 270 269 271 272 273 274 275 276 276 276 275 273 272 272 273 274 274 273 273 272 272 272 273 273 273 273 275 276 277 277 278 279 280 279
274 274 274 275 274 274 272 270 270 270 269 269 271 272 274 275 276 276 275 275 275 273 272 273 273 273 273 273 273 273 272 272 273 272 273 273 275 276 277 278 278 279 279 279
276 278 278 276 277 277 274 271 271 271 269 269 270 272 274 275 276 275 275 275 275 274 273 272 273 274 274 273 272 272 273 273 273 273 273 273 274 275 277 278 279 280 280 280
276 278 280 280 280 279 277 274 272 272 271 270 269 271 273 275 275 275 275 275 275 275 273 272 272 272 273 273 272 273 274 274 273 273 273 274 275 276 277 278 280 281 281 281
276 277 279 281 282 280 278 277 275 273 271 270 270 272 274 275 274 275 276 276 276 275 275 273 272 271 271 271 272 273 273 274 273 273 273 274 275 276 277 278 279 280 281 281
276 276 279 281 281 279 278 277 276 274 273 272 271 273 275 276 276 276 276 276 276 276 275 273 272 271 271 270 271 273 273 273 272 272 273 274 274 275 277 278 279 280 281 281
276 277 278 278 278 279 278 277 275 274 273 272 272 272 274 275 276 275 275 276 276 275 275 274 273 271 270 270 270 272 273 274 274 274 274 274 275 276 277 278 278 280 280 281
276 276 276 275 276 277 278 276 275 275 275 274 273 272 273 275 275 274 273 275 276 276 275 275 274 272 271 270 271 273 274 275 275 277 277 276 276 277 278 278 279 280 281 281
277 277 276 274 274 275 276 277 277 276 276 275 274 274 274 275 276 275 274 275 276 276 276 275 274 273 272 272 273 275 276 276 276 277 278 278 279 281 280 279 280 280 281 282
278 277 276 276 276 275 276 278 278 276 276 275 274 274 275 276 276 276 276 277 277 277 277 276 275 274 274 274 274 275 276 275 276 277 278 279 280 281 281 281 282 281 282 283
276 276 276 276 278 277 278 279 279 277 276 275 274 275 276 275 275 276 278 278 278 278 279 279 278 277 276 275 275 276 277 276 276 277 277 278 278 279 280 281 281 281 282 283
275 275 276 277 277 277 277 279 279 277 276 274 274 274 275 276 276 277 278 279 279 279 280 280 279 278 277 277 276 275 275 275 275 276 276 277 278 279 279 280 280 281 282 283
275 275 277 277 277 277 278 278 276 276 276 275 274 275 275 275 276 277 278 279 280 281 281 280 280 279 278 277 277 277 277 276 275 275 276 277 278 279 279 279 280 281 281 283
277 278 278 277 277 276 277 276 275 275 275 274 274 275 275 275 276 277 278 279 279 280 280 280 280 279 278 278 278 278 278 278 277 277 277 277 278 279 279 279 280 281 282 283
277 278 277 276 277 276 275 274 274 274 274 275 276 276 276 276 276 276 277 277 277 278 279 279 279 278 277 278 278 278 279 279 279 278 278 278 279 279 279 278 279 280 281 283
277 277 277 277 277 276 275 274 274 275 276 277 277 276 276 276 276 277 277 277 278 278 277 277 277 276 277 278 278 278 278 279 279 278 278 278 279 280 279 278 278 278 279 283
276 276 278 278 277 276 276 276 276 277 278 279 279 278 278 277 277 277 278 278 279 278 276 275 274 274 276 277 278 277 277 277 278 278 279 280 280 280 279 278 278 278 280 283
276 277 278 278 276 275 276 277 279 279 279 279 279 279 278 278 277 278 278 278 278 277 275 275 275 275 277 278 278 277 276 277 278 279 280 281 281 280 280 280 280 281 282 284
277 277 278 277 276 276 276 277 279 280 279 279 279 278 278 277 277 278 278 277 276 275 275 275 275 277 278 278 277 276 276 276 277 278 279 279 280 280 280 281 282 282 283 285
276 276 276 276 277 278 278 278 278 279 278 278 278 277 277 277 277 278 277 276 276 276 276 275 274 275 276 276 275 275 275 276 277 277 278 278 278 279 280 282 283 283 283 285
276 275 275 275 276 277 278 278 278 278 277 277 277 276 276 276 276 277 276 276 277 276 276 274 274 275 275 274 273 274 276 277 276 276 276 277 279 279 279 281 282 282 282 284
276 275 276 276 276 277 279 279 279 277 276 277 277 277 277 277 276 276 277 277 277 276 275 274 273 273 273 273 273 275 277 278 277 275 275 276 278 278 278 279 280 281 283 286
276 276 278 279 279 279 280 279 278 277 277 278 278 278 278 278 278 277 278 278 277 276 276 274 273 272 272 273 274 275 276 276 275 275 275 276 276 276 275 276 278 279 282 287
277 278 280 281 281 281 280 280 279 280 280 281 279 278 279 279 278 277 277 277 276 275 275 274 274 273 273 273 274 275 275 274 274 274 275 275 274 274 273 274 276 277 281 286
279 279 280 282 281 280 279 279 280 283 284 283 281 280 280 279 279 278 278 276 275 275 276 275 274 274 273 272 272 272 272 272 273 275 275 273 272 271 271 273 275 277 280 285
Height
5608 5608 5607 5607 5607 5606 5605 5606 5606 5607 5607 5608 5606 5605 5605 5604 5604 5603 5603 5602 5601 5601 5600 5599 5598 5597 5596 5595 5593 5593 5592 5592 5591 5590 5590 5589 5588 5587 5586 5585 5584 5582 5581 5580
5600 5599 5598 5597 5598 5598 5597 5597 5597 5596 5598 5598 5597 5596 5596 5596 5595 5594 5594 5593 5592 5591 5590 5590 5589 5588 5586 5585 5584 5583 5582 5581 5581 5580 5579 5579 5578 5577 5576 5574 5573 5572 5571 5569
5591 5590 5588 5589 5591 5589 5588 5588 5588 5587 5589 5588 5588 5587 5587 5586 5586 5585 5584 5583 5582 5581 5581 5580 5579 5578 5577 5576 5574 5573 5572 5571 5571 5570 5569 5568 5567 5566 5565 5564 5563 5562 5560 5558
5582 5581 5579 5584 5582 5580 5579 5579 5578 5578 5578 5578 5578 5578 5577 5577 5576 5575 5574 5573 5572 5571 5571 5570 5569 5568 5567 5566 5565 5564 5562 5561 5560 5559 5559 5558 5557 5556 5555 5554 5552 5551 5549 5548
5573 5571 5570 5573 5573 5571 5569 5569 5569 5568 5568 5568 5568 5568 5568 5567 5566 5565 5564 5563 5562 5561 5561 5560 5559 5558 5557 5557 5555 5554 5553 5552 5550 5549 5549 5548 5547 5546 5545 5544 5542 5541 5539 5537
5564 5562 5561 5565 5564 5561 5560 5559 5560 5559 5558 5558 5558 5558 5559 5558 5556 5555 5554 5553 5552 5552 5551 5550 5549 5548 5547 5547 5546 5545 5544 5542 5541 5540 5539 5538 5537 5536 5535 5534 5532 5531 5529 5527
5555 5553 5553 5555 5553 5552 5552 5552 5551 5549 5549 5549 5548 5549 5549 5547 5546 5546 5545 5544 5543 5542 5541 5540 5539 5538 5537 5536 5536 5535 5534 5533 5532 5531 5530 5529 5528 5527 5525 5524 5523 5521 5519 5517
5547 5545 5547 5546 5544 5543 5542 5541 5540 5540 5539 5539 5539 5538 5538 5537 5537 5536 5535 5534 5533 5532 5531 5530 5529 5528 5528 5527 5526 5525 5524 5523 5522 5521 5520 5519 5518 5517 5515 5514 5513 5511 5509 5507
5539 5539 5538 5536 5535 5534 5532 5532 5531 5530 5530 5530 5529 5529 5528 5527 5527 5526 5525 5524 5523 5522 5521 5520 5519 5518 5518 5517 5516 5515 5514 5513 5512 5511 5510 5508 5508 5507 5505 5504 5502 5501 5499 5497
5528 5529 5528 5527 5525 5524 5523 5522 5521 5521 5521 5520 5519 5518 5518 5517 5517 5516 5515 5514 5513 5512 5511 5510 5509 5508 5507 5506 5506 5505 5504 5503 5502 5501 5500 5498 5497 5496 5495 5493 5492 5490 5488 5487
5519 5519 5518 5517 5516 5515 5514 5513 5512 5511 5511 5510 5509 5508 5508 5507 5506 5505 5504 5503 5502 5502 5501 5500 5498 5498 5497 5496 5495 5495 5494 5493 5492 5490 5489 5488 5487 5485 5484 5483 5481 5479 5478 5476
5510 5510 5508 5508 5507 5506 5505 5503 5502 5502 5501 5500 5499 5499 5498 5497 5496 5496 5495 5493 5492 5491 5490 5489 5488 5487 5486 5485 5485 5484 5483 5482 5481 5480 5479 5478 5477 5475 5473 5472 5470 5469 5467 5466
5500 5499 5498 5498 5497 5496 5495 5494 5493 5492 5491 5491 5490 5489 5488 5487 5487 5486 5485 5484 5483 5482 5480 5479 5478 5478 5477 5475 5474 5474 5473 5472 5471 5470 5469 5468 5467 5465 5464 5462 5460 5459 5457 5456
5490 5489 5489 5488 5487 5486 5485 5484 5483 5482 5481 5481 5480 5480 5479 5478 5478 5477 5476 5474 5473 5472 5471 5470 5469 5468 5467 5465 5464 5464 5463 5462 5461 5460 5459 5458 5457 5456 5454 5453 5452 5450 5448 5446
5481 5480 5479 5478 5478 5477 5475 5474 5474 5473 5472 5472 5471 5470 5470 5469 5468 5468 5466 5465 5464 5463 5462 5460 5459 5458 5457 5456 5455 5454 5453 5452 5451 5451 5450 5449 5447 5446 5445 5444 5442 5441 5439 5437
5471 5470 5469 5468 5468 5467 5466 5465 5464 5464 5463 5462 5461 5461 5460 5459 5459 5458 5457 5456 5455 5454 5453 5452 5450 5449 5448 5447 5446 5445 5444 5443 5442 5441 5440 5439 5438 5437 5436 5434 5433 5432 5431 5429
5461 5460 5460 5459 5458 5457 5456 5456 5455 5454 5453 5453 5452 5451 5450 5450 5449 5448 5448 5447 5446 5445 5444 5442 5441 5440 5439 5438 5437 5436 5435 5434 5433 5432 5431 5430 5429 5427 5426 5425 5424 5423 5422 5420
5452 5451 5450 5450 5449 5448 5447 5446 5446 5445 5444 5443 5442 5441 5441 5440 5440 5439 5438 5437 5436 5435 5434 5433 5432 5431 5430 5429 5428 5427 5426 5425 5424 5423 5422 5421 5420 5419 5418 5417 5416 5415 5413 5412
5443 5442 5441 5440 5439 5439 5438 5437 5437 5436 5435 5434 5433 5432 5431 5431 5430 5429 5428 5427 5426 5425 5425 5424 5423 5422 5422 5421 5419 5419 5418 5417 5416 5415 5414 5413 5412 5411 5410 5409 5408 5407 5405 5404
5434 5433 5432 5431 5430 5429 5429 5428 5428 5427 5426 5425 5424 5423 5422 5421 5420 5420 5419 5418 5418 5416 5416 5415 5414 5414 5413 5412 5411 5410 5410 5409 5408 5408 5407 5406 5404 5403 5402 5401 5401 5399 5398 5397
5424 5424 5423 5422 5422 5421 5420 5419 5419 5418 5417 5416 5415 5414 5413 5413 5412 5411 5410 5410 5409 5408 5408 5407 5406 5406 5405 5404 5403 5403 5402 5402 5401 5400 5399 5398 5397 5397 5396 5395 5394 5393 5391 5390
5415 5415 5414 5414 5413 5412 5412 5411 5410 5409 5408 5407 5406 5405 5405 5404 5403 5403 5402 5402 5401 5400 5400 5399 5399 5398 5397 5397 5396 5395 5395 5394 5394 5393 5392 5391 5391 5390 5389 5388 5387 5386 5385 5384
5407 5406 5406 5405 5405 5404 5404 5403 5402 5401 5400 5399 5398 5397 5397 5396 5395 5395 5394 5394 5393 5392 5392 5391 5391 5390 5390 5389 5389 5388 5388 5387 5386 5386 5385 5385 5384 5383 5382 5381 5380 5379 5378 5377
5399 5398 5398 5397 5397 5396 5396 5395 5394 5393 5392 5391 5390 5389 5389 5388 5387 5387 5386 5385 5385 5384 5383 5383 5383 5382 5382 5382 5381 5381 5381 5380 5379 5379 5378 5378 5377 5376 5375 5375 5374 5373 5372 5371
5392 5391 5391 5390 5390 5389 5388 5387 5386 5385 5384 5383 5383 5382 5381 5380 5379 5379 5378 5377 5377 5376 5376 5375 5375 5375 5375 5375 5374 5374 5373 5373 5372 5372 5371 5371 5370 5369 5369 5368 5368 5367 5366 5366
5385 5385 5384 5383 5382 5382 5381 5380 5379 5378 5377 5376 5375 5374 5373 5372 5372 5371 5370 5370 5369 5369 5368 5368 5368 5367 5367 5367 5367 5366 5366 5365 5365 5365 5364 5364 5363 5363 5363 5362 5362 5362 5361 5360
5379 5378 5377 5377 5376 5375 5374 5374 5373 5372 5371 5370 5369 5368 5367 5366 5365 5364 5363 5362 5362 5361 5361 5360 5360 5360 5360 5359 5359 5359 5358 5358 5358 5358 5357 5357 5357 5357 5357 5356 5356 5356 5355 5354